Tracking 34171 objects as of 21-May-2026
HD Live streaming from Space Station
objects crossing your sky now

KUIPER-00446

Track KUIPER-00446 now!
10-day predictions
KUIPER-00446 is classified as:


NORAD ID: 68944
Int'l Code: 2026-098AB
Perigee: 465.7 km
Apogee: 474.1 km
Inclination: 51.9 °
Period: 93.8 minutes
Semi major axis: 6840 km
RCS: Unknown
Launch date: April 30, 2026
Source: United States (US)
Launch site: AIR FORCE EASTERN TEST RANGE (AFETR)
Your satellite tracking list
Your tracking list is empty




NASA's NSSDC Master Catalog

Two Line Element Set (TLE):
1 68944U 26098AB  26140.62440815 -.00044081  00000-0 -12994-2 0  9995
2 68944  51.8740 200.5270 0006177  49.1996 310.9524 15.34388550  3114
Source of the keplerian elements: AFSPC